Simultaneous Nadir Overpasses (SNOs) Predictions

Prediction of SNOs between LANDSAT-8 and METOP-B Satellite Orbit:

Table of predicted SNOs for the next 14.0 days since TLE Epoch: 2/10/2017
Index Date (LANDSAT-8) Time (LANDSAT-8) Lat,Lon (LANDSAT-8) SZA (LANDSAT-8 ) Date (METOP-B) Time (METOP-B) Lat,Lon (METOP-B) SZA (METOP-B ) Distance(km) Time Diff (sec)
1 02/12/2017 14:37:50 81.09, -0.34 96.16 02/12/2017 14:37:25 81.10, -0.20 96.17 2.50 25
2 02/12/2017 15:27:16 -81.11, 167.60 83.82 02/12/2017 15:28:04 -81.12, 167.77 83.77 3.18 48
3 02/15/2017 10:12:04 81.10, 66.29 95.24 02/15/2017 10:11:47 81.11, 66.49 95.25 3.33 17
4 02/15/2017 11:01:30 -81.12,-125.75 84.74 02/15/2017 11:02:27 -81.12,-125.91 84.74 2.97 57
5 02/18/2017 05:46:18 81.09, 132.53 94.23 02/18/2017 05:46:10 81.09, 132.40 94.22 2.23 8
6 02/18/2017 06:35:44 -81.11, -59.49 85.74 02/18/2017 06:36:49 -81.11, -59.62 85.72 2.20 65
7 02/21/2017 00:31:11 -80.97, 29.66 87.00 02/21/2017 00:29:57 -81.01, 29.56 87.00 4.62 74
8 02/21/2017 01:20:32 81.10,-160.91 93.25 02/21/2017 01:20:32 81.10,-160.96 93.25 0.88 0
9 02/21/2017 02:09:58 -81.12, 7.10 86.71 02/21/2017 02:11:11 -81.12, 7.04 86.69 1.07 73
10 02/23/2017 20:05:21 -81.08, 97.63 87.80 02/23/2017 20:04:15 -81.08, 97.67 87.82 0.69 66




NCC Satellite Simultaneous Nadir Overpasses (SNOs) Prediction Service
